Rolla, MO

2:30 AM CDT on April 24, 2017 (GMT -0500)
Rolla National

Weather History for KVIH - February, 2013

Change the Weather History Date:

Friday, February 15, 2013

  Actual Average Record
Temperature  
Mean Temperature 32 °F 36 °F  
Max Temperature 41 °F 46 °F 73 °F (2005)
Min Temperature 23 °F 25 °F 0 °F (1958)
Degree Days  
Heating Degree Days 33 29  
Month to date heating degree days 418 467  
Since 1 July heating degree days 3146 3435  
Cooling Degree Days 0 0  
Month to date cooling degree days 0 0  
Year to date cooling degree days 0 0  
Moisture  
Dew Point 20 °F    
Average Humidity 57    
Maximum Humidity 78    
Minimum Humidity 35    
Precipitation  
Precipitation 0.00 in 0.06 in 0.71 in (1964)
Month to date precipitation 0.55 0.98  
Year to date precipitation 3.02 3.15  
Sea Level Pressure  
Sea Level Pressure 30.22 in    
Wind  
Wind Speed 10 mph (NW)    
Max Wind Speed 20 mph    
Max Gust Speed 24 mph    
Visibility 10 miles    
Events      
T = Trace of Precipitation, MM = Missing Value Source: NWS Daily Summary

Daily Weather History Graph

Daily Weather History Graph

Search for Another Location

Airport or City:

Trip Planner

Search our weather history database for the weather conditions in past years. The results will help you decide how hot, cold, wet, or windy it might be!

Date:

Astronomy

Feb. 15, 2013 Rise Set
Actual Time 6:56 AM CST 5:45 PM CST
Civil Twilight 6:29 AM CST 6:12 PM CST
Nautical Twilight 5:59 AM CST 6:43 PM CST
Astronomical Twilight 5:28 AM CST 7:14 PM CST
Moon 9:39 AM CST (2/15) 11:40 PM CST (2/15)
Length of Visible Light 11h 43m
Length of Day
10h 49m
Waxing Crescent, 30% of the Moon is Illuminated
Feb 15
Waxing Crescent
Feb 17
First Quarter
Feb 25
Full
Mar 4
Last Quarter
Mar 11
New

Hourly Weather History & Observations

Time (CST) Temp. Windchill Dew Point Humidity Pressure Visibility Wind Dir Wind Speed Gust Speed Precip Events Conditions
12:53 AM 37.9 °F 33.5 °F 26.1 °F 62% 30.09 in 10.0 mi NW 5.8 mph - N/A   Mostly Cloudy
1:53 AM 36.0 °F 33.3 °F 25.0 °F 64% 30.10 in 10.0 mi NW 3.5 mph - N/A   Partly Cloudy
2:53 AM 36.0 °F 29.6 °F 24.1 °F 62% 30.12 in 10.0 mi NW 8.1 mph - N/A   Mostly Cloudy
3:53 AM 35.1 °F 27.4 °F 24.1 °F 64% 30.12 in 10.0 mi NW 10.4 mph - N/A   Mostly Cloudy
4:53 AM 34.0 °F 26.0 °F 25.0 °F 70% 30.15 in 10.0 mi NNW 10.4 mph - N/A   Overcast
5:53 AM 32.0 °F 22.5 °F 26.1 °F 79% 30.18 in 10.0 mi NNW 12.7 mph - N/A   Mostly Cloudy
6:12 AM 32.0 °F 23.0 °F 26.6 °F 80% 30.17 in 10.0 mi NNW 11.5 mph - N/A   Overcast
6:53 AM 30.9 °F 20.7 °F 25.0 °F 79% 30.21 in 10.0 mi NNW 13.8 mph - N/A   Overcast
7:53 AM 30.0 °F 20.0 °F 23.0 °F 75% 30.24 in 10.0 mi NNW 12.7 mph - N/A   Mostly Cloudy
8:09 AM 30.2 °F 21.3 °F 24.8 °F 80% 30.23 in 10.0 mi NNW 10.4 mph - N/A   Overcast
8:53 AM 30.0 °F 20.0 °F 19.9 °F 66% 30.27 in 10.0 mi NW 12.7 mph 21.9 mph N/A   Mostly Cloudy
9:00 AM 28.4 °F 15.4 °F 19.4 °F 69% 30.25 in 10.0 mi NW 19.6 mph 23.0 mph N/A   Mostly Cloudy
9:53 AM 30.9 °F 21.7 °F 19.0 °F 61% 30.29 in 10.0 mi NNW 11.5 mph 18.4 mph N/A   Clear
10:53 AM 33.1 °F 24.9 °F 18.0 °F 54% 30.28 in 10.0 mi NNW 10.4 mph - N/A   Clear
11:53 AM 34.0 °F 26.0 °F 17.1 °F 50% 30.27 in 10.0 mi NNW 10.4 mph 17.3 mph N/A   Clear
12:53 PM 36.0 °F 28.0 °F 14.0 °F 41% 30.26 in 10.0 mi NNW 11.5 mph - N/A   Clear
1:53 PM 37.0 °F 30.4 °F 12.0 °F 36% 30.24 in 10.0 mi NW 9.2 mph 18.4 mph N/A   Clear
8:53 PM 28.9 °F 19.2 °F 12.9 °F 51% 30.27 in 10.0 mi NW 11.5 mph - N/A   Scattered Clouds
9:53 PM 27.0 °F 18.7 °F 14.0 °F 58% 30.27 in 10.0 mi NW 8.1 mph - N/A   Clear
10:53 PM 25.0 °F 17.1 °F 14.0 °F 63% 30.26 in 10.0 mi NW 6.9 mph - N/A   Clear
11:53 PM 24.1 °F 16.0 °F 14.0 °F 65% 30.25 in 10.0 mi NNW 6.9 mph - N/A   Clear